Regional Weather Roundup
Issued by NWS

Home | Current Version | Previous Version | Text Only | Print | Product List | Glossary Off
Versions: 1 2 3 4 5 6 7 8 9 10 11 12 13 14 15 16 17 18 19 20 21 22 23 24 25 26 27 28 29 30 31 32 33 34 35 36 37 38 39 40 41 42 43 44 45 46 47 48 49 50

000
ASUS43 KOAX 152202
RWRNE

WEATHER ROUNDUP FOR NEBRASKA
NATIONAL WEATHER SERVICE OMAHA NE
400 PM CST FRI DEC 15 2017

NOTES: SATELLITE DATA IS BEING USED TO AUGMENT CLOUD COVER ABOVE
       12000 FEET.
       "FAIR" INDICATES FEW OR NO CLOUDS BELOW 12,000 FEET WITH NO
       SIGNIFICANT WEATHER AND/OR OBSTRUCTIONS TO VISIBILITY.


NEZ001>004-019>022-054>056-152300-
NEBRASKA PANHANDLE

CITY           SKY/WX    TMP DP  RH WIND       PRES   REMARKS
SCOTTSBLUFF    CLOUDY    57  13  17 W18G26    29.82F
ALLIANCE       CLOUDY    53  15  22 W16       29.79F
CHADRON        CLOUDY    55  14  19 W8        29.75S
GORDON         FAIR      54  17  23 W10       29.74S
KIMBALL        CLOUDY    56  13  18 W23G32    29.85F
SIDNEY         CLOUDY    59  13  16 NW17G25   29.83F
$$

NEZ057>060-069>072-079>082-152300-
SOUTHWEST NEBRASKA

CITY           SKY/WX    TMP DP  RH WIND       PRES   REMARKS
NORTH PLATTE   SUNNY     57  14  18 W16       29.81F
IMPERIAL       SUNNY     58  11  15 W12       29.85F
LEXINGTON      SUNNY     55  18  23 SW12      29.82F
MCCOOK         SUNNY     59  13  16 SW10      29.84F
OGALLALA       SUNNY     57  17  20 W7        29.81F
$$

NEZ005>010-023>029-035>040-094-152300-
NORTH CENTRAL NEBRASKA

CITY           SKY/WX    TMP DP  RH WIND       PRES   REMARKS
VALENTINE      PTCLDY    50  28  42 W6        29.73F
AINSWORTH      PTCLDY    48  32  53 SW8       29.74F
BROKEN BOW     CLEAR     51  25  36 SW9       29.78F
O`NEILL        CLEAR     48  29  48 SW10      29.75F
ORD            CLEAR     49  27  42 SW8       29.78F
THEDFORD       PTCLDY    56  20  25 W12       29.78S
$$

NEZ041-046>049-061>064-073>077-083>087-152300-
SOUTH CENTRAL NEBRASKA

CITY           SKY/WX    TMP DP  RH WIND       PRES   REMARKS
GRAND ISLAND   CLEAR     50  26  39 SW15      29.83F
AURORA         CLEAR     48  28  45 SW14      29.83F
HASTINGS       CLEAR     51  21  30 SW13G23   29.84F
HEBRON         CLEAR     51  26  38 SW10G16   29.90R
HOLDREGE       SUNNY     53  20  28 SW10G16   29.84F
KEARNEY        CLEAR     52  20  28 SW16      29.82F
YORK           CLEAR     48  27  43 SW14      29.84F
$$

NEZ011>018-030>034-042>045-152300-
NORTHEAST NEBRASKA

CITY           SKY/WX    TMP DP  RH WIND       PRES   REMARKS
NORFOLK        CLEAR     44  29  55 SW12      29.76F
ALBION         CLEAR     47  31  52 SW8       29.79F
BLAIR          PTCLDY    48  27  42 SW20G25   29.82F
COLUMBUS       CLEAR     46  29  51 SW16      29.82F
FREMONT        CLEAR     47  27  44 SW15      29.83F
TEKAMAH        PTCLDY    48  25  40 SW15      29.80F
WAYNE          CLOUDY    46  26  44 SW13      29.77S
$$

NEZ050>053-065>068-078-088>093-152300-
SOUTHEAST NEBRASKA

CITY           SKY/WX    TMP DP  RH WIND       PRES   REMARKS
LINCOLN        CLEAR     49  26  41 SW17      29.87F
OMAHA EPPLEY   PTCLDY    49  24  37 SW13G24   29.84F
BEATRICE       CLEAR     50  25  37 SW15      29.90S
FALLS CITY     CLEAR     48  24  39 SW15G21   29.93F
NEBRASKA CITY  CLEAR     48  27  45 SW18      29.89F
PLATTSMOUTH    CLEAR     47  27  44 SW14      29.87F
$$

NEZ044-045-051>053-067-152300-
OMAHA AREA

CITY           SKY/WX    TMP DP  RH WIND       PRES   REMARKS
OMAHA EPPLEY   PTCLDY    49  24  37 SW13G24   29.84F
BLAIR          PTCLDY    48  27  42 SW20G25   29.82F
FREMONT        CLEAR     47  27  44 SW15      29.83F
MILLARD        CLEAR     50  27  41 SW8G17    29.84F
OFFUTT AFB     MOCLDY    49  24  37 SW17G24   29.85F
PLATTSMOUTH    CLEAR     47  27  44 SW14      29.87F
WAHOO          FAIR      48  26  41 SW15G22   29.83F
$$




USA.gov is the U.S. government's official web portal to all federal, state and local government web resources and services.